Regional Weather Roundup
Issued by NWS Sioux Falls, SD

Home | Current Version | Previous Version | Text Only | Print | Product List | Glossary Off
Versions: 1 2 3 4 5 6 7 8 9 10 11 12 13 14 15 16 17 18 19 20 21 22 23 24 25 26 27 28 29 30 31 32 33 34 35 36 37 38 39 40 41 42 43 44 45 46 47 48 49 50

339
ASUS43 KFSD 270402
RWRFSD

WEATHER ROUNDUP FOR SE SOUTH DAKOTA/SW MINNESOTA/NW IOWA
NATIONAL WEATHER SERVICE SIOUX FALLS SD
1100 PM CDT THU MAY 26 2016

NOTE: "FAIR" INDICATES FEW OR NO CLOUDS BELOW 12,000 FEET WITH NO
SIGNIFICANT WEATHER AND OR OBSTRUCTIONS TO VISIBILITY.


SDZ038>040-050-052>070-270500-
SOUTHEAST SOUTH DAKOTA

CITY           SKY/WX    TMP DP  RH WIND       PRES   REMARKS
BROOKINGS      CLOUDY    61  54  77 CALM      29.81R
CHAMBERLAIN    NOT AVBL
HURON          CLOUDY    65  55  70 CALM      29.80R
MADISON        FAIR      64  59  82 SE7       29.81R
MITCHELL       CLOUDY    65  60  84 SE7       29.78R
SIOUX FALLS    CLOUDY    67  54  63 S16G24    29.80R
WINNER         TSTM      64  57  77 N6        29.82R
YANKTON        CLOUDY    64  55  72 S12       29.78R
$$

MNZ071-072-080-081-089-090-097-098-270500-
SOUTHWEST MINNESOTA

CITY           SKY/WX    TMP DP  RH WIND       PRES   REMARKS
FAIRMONT       PTCLDY    66  55  68 S7        29.83S
JACKSON        CLOUDY    64  54  68 S6        29.84R
LUVERNE        CLOUDY    63  55  77 S5        29.81R
MARSHALL       MOCLDY    68  53  58 S6        29.81R
MONTEVIDEO     CLOUDY    66  48  52 CALM      29.81R
PIPESTONE      CLOUDY    66  54  63 SE7       29.82R
REDWOOD FALLS  CLOUDY    68  54  60 CALM      29.79R
TRACY          CLOUDY    68  55  62 S3        29.80R
WINDOM         CLOUDY    66  57  72 CALM      29.82R
WORTHINGTON    CLOUDY    65  58  78 S6        29.83R
$$

IAZ001>003-012>014-020>022-031-032-NEZ013-014-SDZ071-270500-
NORTHWEST IOWA

CITY           SKY/WX    TMP DP  RH WIND       PRES   REMARKS
ESTHERVILLE    CLOUDY    64  56  75 S14       29.81F
SIOUX CITY     CLOUDY    64  55  72 S10       29.79R
SPENCER        CLOUDY    63  56  78 SE10      29.82R
STORM LAKE     CLOUDY    63  54  72 E12       29.80F
$$

ABBREVIATIONS USED IN REMARKS
   TC - TEMPERATURE IN CELSIUS
  WCI - WIND CHILL INDEX
   HX - HEAT INDEX
  VSB - VISIBILITY





USA.gov is the U.S. government's official web portal to all federal, state and local government web resources and services.